Fort Drum, NY

2:45 AM EDT on October 18, 2019 (GMT -0400)
Wheeler-Sack Army Air Field

Weather History for KGTB - September, 2019

Change the Weather History Date:

Monday, September 16, 2019

  Actual Average Record
Temperature  
Mean Temperature 56 °F -  
Max Temperature 67 °F 68 °F 85 °F (2018)
Min Temperature 44 °F 48 °F 35 °F (2007)
Degree Days  
Heating Degree Days 10    
Growing Degree Days 6 (Base 50)    
Moisture  
Dew Point 47 °F    
Average Humidity 85    
Maximum Humidity 100    
Minimum Humidity 46    
Precipitation  
Precipitation 0.00 in - - ()
Sea Level Pressure  
Sea Level Pressure 30.13 in    
Wind  
Wind Speed 1 mph (ESE)    
Max Wind Speed 9 mph    
Max Gust Speed -    
Visibility 7 miles    
Events Fog    
Averages and records for this station are not official NWS values.
T = Trace of Precipitation, MM = Missing Value Source: NWS Daily Summary

Daily Weather History Graph

Daily Weather History Graph

Search for Another Location

Airport or City:

Astronomy

Sep. 16, 2019 Rise Set
Actual Time 6:42 AM EDT 7:11 PM EDT
Civil Twilight 6:13 AM EDT 7:40 PM EDT
Nautical Twilight 5:39 AM EDT 8:14 PM EDT
Astronomical Twilight 5:04 AM EDT 8:50 PM EDT
Moon 8:41 PM EDT (9/16) 8:50 AM EDT (9/16)
Length of Visible Light 13h 26m
Length of Day
12h 28m
Waning Gibbous, 94% of the Moon is Illuminated
Sep 16
Waning Gibbous
Sep 21
Last Quarter
Sep 28
New
Oct 5
First Quarter
Oct 13
Full

Hourly Weather History & Observations

Time (EDT) Temp. Windchill Dew Point Humidity Pressure Visibility Wind Dir Wind Speed Gust Speed Precip Events Conditions
12:01 AM 51.8 °F - 50.0 °F 94% 30.12 in 1.0 mi Calm Calm - N/A   Clear
12:11 AM 50.0 °F - 48.2 °F 94% 30.12 in 0.8 mi Calm Calm - N/A   Clear
12:16 AM 50.0 °F - 50.0 °F 100% 30.12 in 1.8 mi Calm Calm - N/A   Clear
12:26 AM 50.0 °F - 50.0 °F 100% 30.12 in 0.4 mi Calm Calm - N/A Fog Fog
12:36 AM 51.8 °F - 50.0 °F 94% 30.12 in 2.2 mi Calm Calm - N/A   Clear
12:46 AM 51.8 °F - 51.8 °F 100% 30.10 in 10.0 mi Calm Calm - N/A   Clear
12:56 AM 50.9 °F - 49.5 °F 95% 30.12 in 10.0 mi Calm Calm - N/A   Clear
1:56 AM 48.6 °F - 47.5 °F 96% 30.13 in 10.0 mi Calm Calm - N/A   Clear
2:56 AM 49.1 °F - 48.0 °F 96% 30.12 in 8.0 mi Calm Calm - N/A   Clear
3:56 AM 47.7 °F - 46.6 °F 96% 30.13 in 10.0 mi Calm Calm - N/A   Clear
4:16 AM 48.2 °F - 46.4 °F 93% 30.13 in 3.0 mi Calm Calm - N/A   Mist
4:21 AM 46.4 °F - 46.4 °F 100% 30.13 in 0.8 mi Calm Calm - N/A   Mist
4:31 AM 48.2 °F - 46.4 °F 93% 30.13 in 0.2 mi Calm Calm - N/A Fog Fog
4:51 AM 48.2 °F - 46.4 °F 93% 30.12 in 1.2 mi SE 3.5 mph - N/A   Mist
4:56 AM 47.7 °F - 46.6 °F 96% 30.12 in 5.0 mi Calm Calm - N/A   Mist
5:21 AM 46.4 °F - 44.6 °F 93% 30.12 in 0.9 mi Calm Calm - N/A   Mist
5:31 AM 46.4 °F 45.2 °F 46.4 °F 100% 30.12 in 2.2 mi SSE 3.5 mph - N/A   Mist
5:41 AM 46.4 °F - 46.4 °F 100% 30.13 in 10.0 mi Calm Calm - N/A   Partly Cloudy
5:56 AM 46.9 °F - 45.9 °F 96% 30.13 in 10.0 mi SE 3.5 mph - N/A   Clear
6:30 AM 44.6 °F 43.1 °F 44.6 °F 100% 30.14 in 2.8 mi WSW 3.5 mph - N/A   Mist
6:35 AM 44.6 °F 43.1 °F 44.6 °F 100% 30.14 in 0.5 mi SSW 3.5 mph - N/A Fog Fog
6:45 AM 44.6 °F - 44.6 °F 100% 30.14 in 0.4 mi Calm Calm - N/A Fog Fog
6:50 AM 46.4 °F 45.2 °F 44.6 °F 93% 30.15 in 3.0 mi SSE 3.5 mph - N/A   Mist
6:56 AM 46.6 °F - 45.5 °F 96% 30.15 in 8.0 mi SSE 3.5 mph - N/A   Partly Cloudy
7:56 AM 50.0 °F - 49.1 °F 97% 30.16 in 10.0 mi Calm Calm - N/A   Clear
8:56 AM 54.9 °F - 53.4 °F 95% 30.16 in 10.0 mi ESE 4.6 mph - N/A   Clear
9:56 AM 59.2 °F - 46.9 °F 64% 30.16 in 10.0 mi East 4.6 mph - N/A   Clear
10:56 AM 61.0 °F - 46.0 °F 58% 30.16 in 10.0 mi NNE 4.6 mph - N/A   Clear
11:56 AM 63.1 °F - 45.7 °F 53% 30.14 in 10.0 mi ENE 5.8 mph - N/A   Partly Cloudy
12:56 PM 64.8 °F - 44.1 °F 47% 30.13 in 10.0 mi NE 9.2 mph - N/A   Partly Cloudy
1:56 PM 65.8 °F - 45.7 °F 48% 30.12 in 10.0 mi NNE 3.5 mph - N/A   Clear
2:56 PM 66.6 °F - 46.8 °F 49% 30.11 in 10.0 mi NE 8.1 mph - N/A   Clear
3:56 PM 67.6 °F - 46.0 °F 46% 30.11 in 10.0 mi NNE 6.9 mph - N/A   Clear
4:56 PM 64.9 °F - 48.4 °F 55% 30.10 in 10.0 mi North 6.9 mph - N/A   Clear
5:56 PM 65.3 °F - 46.8 °F 51% 30.11 in 10.0 mi North 4.6 mph - N/A   Partly Cloudy
6:56 PM 61.0 °F - 52.7 °F 74% 30.11 in 10.0 mi Calm Calm - N/A   Haze
7:56 PM 55.0 °F - 50.4 °F 84% 30.11 in 10.0 mi Calm Calm - N/A   Clear
8:56 PM 53.4 °F - 49.3 °F 86% 30.12 in 10.0 mi SSW 4.6 mph - N/A   Clear
9:56 PM 50.2 °F - 47.7 °F 91% 30.13 in 10.0 mi South 3.5 mph - N/A   Clear
10:56 PM 49.3 °F - 47.1 °F 92% 30.14 in 10.0 mi Calm Calm - N/A   Clear
11:56 PM 48.2 °F - 46.0 °F 92% 30.15 in 10.0 mi South 3.5 mph - N/A   Clear